Time,TemperatureF,DewpointF,PressureIn,WindDirection,WindDirectionDegrees,WindSpeedMPH,WindSpeedGustMPH,Humidity,HourlyPrecipIn,Conditions,Clouds,dailyrainin,SoftwareType,DateUTC
2013-07-03 00:01:00,77.0,75.0,30.23,ENE,74,2.0,8.0,93,0.00,,,0.19,,2013-07-03 04:01:00,
2013-07-03 00:22:00,77.0,75.0,30.23,North,352,1.0,5.0,94,0.00,,,0.19,,2013-07-03 04:22:00,
2013-07-03 00:34:00,77.0,75.0,30.24,SSW,204,2.0,6.0,94,0.00,,,0.19,,2013-07-03 04:34:00,
2013-07-03 00:43:00,77.0,75.0,30.23,ENE,61,2.0,5.0,94,0.00,,,0.19,,2013-07-03 04:43:00,
2013-07-03 00:52:00,77.0,75.0,30.22,East,87,2.0,5.0,94,0.00,,,0.19,,2013-07-03 04:52:00,
2013-07-03 01:02:00,77.0,75.0,30.22,SE,124,1.0,6.0,94,0.00,,,0.19,,2013-07-03 05:02:00,
2013-07-03 01:56:00,77.0,76.0,30.22,ESE,111,1.0,3.0,96,0.00,,,0.19,,2013-07-03 05:56:00,
2013-07-03 02:07:00,77.0,76.0,30.22,South,181,1.0,3.0,96,0.00,,,0.19,,2013-07-03 06:07:00,
2013-07-03 02:13:00,78.0,76.0,30.21,SSE,148,4.0,11.0,94,0.00,,,0.19,,2013-07-03 06:13:00,
2013-07-03 02:39:00,78.0,76.0,30.21,SSE,148,4.0,11.0,94,0.00,,,0.19,,2013-07-03 06:39:00,
2013-07-03 02:50:00,78.0,76.0,30.21,SSE,148,4.0,11.0,94,0.00,,,0.19,,2013-07-03 06:50:00,
2013-07-03 02:55:00,78.0,76.0,30.21,SSE,148,4.0,11.0,94,0.00,,,0.19,,2013-07-03 06:55:00,
2013-07-03 03:07:00,78.0,76.0,30.21,SSE,148,4.0,11.0,94,0.00,,,0.19,,2013-07-03 07:07:00,
2013-07-03 11:06:00,86.0,79.0,30.27,West,264,4.0,11.0,79,0.00,,,0.04,,2013-07-03 15:06:00,
2013-07-03 11:26:00,86.0,78.0,30.27,SE,141,4.0,10.0,78,0.00,,,0.04,,2013-07-03 15:26:00,
2013-07-03 11:37:00,86.0,78.0,30.28,SE,139,5.0,10.0,77,0.00,,,0.03,,2013-07-03 15:37:00,
2013-07-03 11:47:00,85.0,78.0,30.27,SSW,200,3.0,13.0,79,0.00,,,0.03,,2013-07-03 15:47:00,
2013-07-03 11:55:00,86.0,79.0,30.27,NNW,336,4.0,9.0,79,0.00,,,0.03,,2013-07-03 15:55:00,
2013-07-03 12:07:00,86.0,78.0,30.28,NE,44,5.0,12.0,78,0.00,,,0.03,,2013-07-03 16:07:00,
2013-07-03 12:17:00,85.0,77.0,30.27,ENE,58,5.0,11.0,78,0.00,,,0.03,,2013-07-03 16:17:00,
2013-07-03 12:46:00,86.0,78.0,30.28,ESE,115,4.0,11.0,78,0.00,,,0.02,,2013-07-03 16:46:00,
2013-07-03 13:16:00,87.0,79.0,30.28,SSE,162,3.0,11.0,77,0.00,,,0.02,,2013-07-03 17:16:00,
2013-07-03 13:26:00,86.0,78.0,30.28,SSE,152,5.0,12.0,76,0.00,,,0.02,,2013-07-03 17:26:00,
2013-07-03 13:40:00,86.0,78.0,30.28,SE,146,5.0,10.0,77,0.00,,,0.02,,2013-07-03 17:40:00,
2013-07-03 13:47:00,86.0,78.0,30.28,SE,131,5.0,10.0,77,0.00,,,0.02,,2013-07-03 17:47:00,
2013-07-03 14:07:00,86.0,78.0,30.27,SE,143,5.0,12.0,77,0.00,,,0.02,,2013-07-03 18:07:00,
2013-07-03 14:16:00,87.0,78.0,30.27,SE,129,3.0,9.0,76,0.00,,,0.02,,2013-07-03 18:16:00,
2013-07-03 14:25:00,86.0,78.0,30.27,ENE,75,3.0,13.0,78,0.00,,,0.02,,2013-07-03 18:25:00,
2013-07-03 14:37:00,86.0,78.0,30.27,SE,124,4.0,11.0,78,0.00,,,0.02,,2013-07-03 18:37:00,
2013-07-03 14:46:00,86.0,79.0,30.26,NE,53,5.0,13.0,79,0.00,,,0.02,,2013-07-03 18:46:00,
2013-07-03 14:56:00,86.0,78.0,30.26,SSE,149,4.0,12.0,78,0.00,,,0.02,,2013-07-03 18:56:00,
2013-07-03 15:04:00,85.0,77.0,30.26,SE,139,6.0,10.0,78,0.00,,,0.02,,2013-07-03 19:04:00,
2013-07-03 15:16:00,86.0,79.0,30.26,SSE,149,2.0,7.0,79,0.00,,,0.02,,2013-07-03 19:16:00,
2013-07-03 15:30:00,86.0,78.0,30.26,ESE,121,5.0,13.0,76,0.00,,,0.02,,2013-07-03 19:30:00,
2013-07-03 15:38:00,86.0,78.0,30.25,ESE,105,3.0,9.0,77,0.00,,,0.02,,2013-07-03 19:38:00,
2013-07-03 15:47:00,86.0,78.0,30.25,ENE,70,4.0,9.0,78,0.00,,,0.02,,2013-07-03 19:47:00,
2013-07-03 16:05:00,86.0,78.0,30.25,NW,319,1.0,10.0,78,0.00,,,0.02,,2013-07-03 20:05:00,
2013-07-03 16:25:00,85.0,77.0,30.25,ENE,72,4.0,10.0,78,0.00,,,0.02,,2013-07-03 20:25:00,
2013-07-03 16:37:00,86.0,78.0,30.25,WSW,246,4.0,8.0,77,0.00,,,0.02,,2013-07-03 20:37:00,
2013-07-03 16:55:00,86.0,77.0,30.25,SSE,152,3.0,9.0,75,0.00,,,0.02,,2013-07-03 20:55:00,
2013-07-03 17:06:00,86.0,78.0,30.25,SE,135,3.0,9.0,77,0.00,,,0.02,,2013-07-03 21:06:00,
2013-07-03 17:14:00,86.0,78.0,30.25,North,354,4.0,9.0,76,0.00,,,0.02,,2013-07-03 21:14:00,
2013-07-03 17:45:00,85.0,78.0,30.25,SE,136,3.0,8.0,79,0.00,,,0.02,,2013-07-03 21:45:00,
2013-07-03 18:06:00,85.0,77.0,30.25,SE,132,4.0,8.0,78,0.00,,,0.02,,2013-07-03 22:06:00,
2013-07-03 18:15:00,85.0,77.0,30.24,East,99,2.0,8.0,78,0.00,,,0.02,,2013-07-03 22:15:00,
2013-07-03 18:26:00,85.0,77.0,30.24,South,190,3.0,8.0,77,0.00,,,0.02,,2013-07-03 22:26:00,
2013-07-03 18:38:00,85.0,77.0,30.24,SSW,195,3.0,8.0,77,0.00,,,0.02,,2013-07-03 22:38:00,
2013-07-03 18:46:00,85.0,77.0,30.25,SE,139,3.0,9.0,77,0.00,,,0.02,,2013-07-03 22:46:00,
2013-07-03 18:54:00,84.0,76.0,30.25,WNW,295,4.0,10.0,78,0.00,,,0.02,,2013-07-03 22:54:00,
2013-07-03 19:06:00,84.0,78.0,30.25,ENE,74,1.0,7.0,81,0.00,,,0.02,,2013-07-03 23:06:00,
2013-07-03 19:14:00,84.0,78.0,30.25,ESE,120,4.0,7.0,81,0.00,,,0.02,,2013-07-03 23:14:00,
2013-07-03 19:25:00,83.0,77.0,30.25,NNE,16,3.0,8.0,82,0.00,,,0.02,,2013-07-03 23:25:00,
2013-07-03 19:40:00,83.0,77.0,30.26,South,170,2.0,7.0,83,0.00,,,0.02,,2013-07-03 23:40:00,
2013-07-03 19:45:00,82.0,77.0,30.26,West,267,1.0,5.0,84,0.00,,,0.02,,2013-07-03 23:45:00,
2013-07-03 19:55:00,82.0,77.0,30.26,SSW,192,1.0,5.0,85,0.00,,,0.02,,2013-07-03 23:55:00,
2013-07-03 20:05:00,81.0,76.0,30.26,ENE,68,3.0,5.0,86,0.00,,,0.02,,2013-07-04 00:05:00,
2013-07-03 20:26:00,81.0,77.0,30.26,SE,127,1.0,4.0,87,0.00,,,0.02,,2013-07-04 00:26:00,
2013-07-03 20:37:00,80.0,76.0,30.26,SSE,152,1.0,3.0,88,0.00,,,0.02,,2013-07-04 00:37:00,
2013-07-03 20:49:00,80.0,76.0,30.26,ESE,108,1.0,3.0,89,0.00,,,0.02,,2013-07-04 00:49:00,
2013-07-03 20:56:00,80.0,76.0,30.26,SE,134,0.0,3.0,89,0.00,,,0.02,,2013-07-04 00:56:00,
2013-07-03 21:05:00,80.0,77.0,30.26,SE,126,1.0,3.0,90,0.00,,,0.02,,2013-07-04 01:05:00,
2013-07-03 21:16:00,79.0,76.0,30.27,SE,134,1.0,4.0,90,0.00,,,0.02,,2013-07-04 01:16:00,
2013-07-03 21:24:00,79.0,76.0,30.27,SE,143,0.0,1.0,91,0.00,,,0.02,,2013-07-04 01:24:00,
2013-07-03 21:38:00,79.0,76.0,30.27,SSE,149,1.0,3.0,92,0.00,,,0.02,,2013-07-04 01:38:00,
2013-07-03 21:44:00,79.0,76.0,30.27,SSE,153,1.0,3.0,92,0.00,,,0.02,,2013-07-04 01:44:00,
2013-07-03 21:54:00,79.0,77.0,30.28,East,84,0.0,2.0,93,0.00,,,0.02,,2013-07-04 01:54:00,
2013-07-03 22:08:00,79.0,77.0,30.28,East,99,0.0,1.0,93,0.00,,,0.02,,2013-07-04 02:08:00,
2013-07-03 22:24:00,78.0,76.0,30.29,SE,138,0.0,2.0,94,0.00,,,0.02,,2013-07-04 02:24:00,
2013-07-03 22:49:00,78.0,76.0,30.29,SSE,148,0.0,3.0,94,0.00,,,0.02,,2013-07-04 02:49:00,
2013-07-03 22:55:00,78.0,76.0,30.28,SE,131,1.0,2.0,95,0.00,,,0.02,,2013-07-04 02:55:00,
2013-07-03 23:15:00,78.0,76.0,30.29,SSE,155,0.0,3.0,95,0.00,,,0.02,,2013-07-04 03:15:00,
2013-07-03 23:36:00,78.0,76.0,30.29,SE,138,0.0,3.0,95,0.00,,,0.02,,2013-07-04 03:36:00,
2013-07-03 23:46:00,78.0,76.0,30.29,ENE,71,0.0,2.0,95,0.00,,,0.02,,2013-07-04 03:46:00,
2013-07-03 23:56:00,78.0,76.0,30.29,SE,141,1.0,3.0,95,0.00,,,0.02,,2013-07-04 03:56:00,